When you browse on this site, cookies collect data to enhance your experience and personalize the content and advertising you see.
Visit our Privacy Policy to learn more. By continuing to use the site, you agree to this use of cookies and data.
  • In Hungary
  • List of Countries
  • For 7 days
  • Water Temperature
  • Weather Map
  • News
  • Weather Widgets
  • user-avatar
    Login

    Hourly Weather Gjirokaster

    Today, 5 June, Friday

    Time Temperature Precipitation Wind Pressure Humidity
    00:00 +7°C° 0 mm 3 mps 649 mmHg 76%
    01:00 +7°C° 0 mm 3 mps 649 mmHg 74%
    02:00 +7°C° 0 mm 3 mps 648 mmHg 72%
    03:00 +7°C° 0 mm 3 mps 648 mmHg 70%
    04:00 +7°C° 0 mm 3 mps 648 mmHg 68%
    05:00 +9°C° 0 mm 3 mps 648 mmHg 65%
    06:00 +10°C° 0 mm 2 mps 649 mmHg 61%
    07:00 +13°C° 0 mm 2 mps 650 mmHg 58%
    08:00 +14°C° 0 mm 2 mps 650 mmHg 54%
    09:00 +14°C° 0 mm 3 mps 650 mmHg 50%
    10:00 +16°C° 0 mm 3 mps 650 mmHg 45%
    11:00 +17°C° 0 mm 3 mps 650 mmHg 45%
    12:00 +18°C° 0 mm 4 mps 650 mmHg 46%
    13:00 +17°C° 0 mm 5 mps 649 mmHg 46%
    14:00 +18°C° 0 mm 4 mps 649 mmHg 46%
    15:00 +18°C° 0 mm 4 mps 648 mmHg 47%
    16:00 +17°C° 0 mm 4 mps 648 mmHg 48%
    17:00 +16°C° 0 mm 3 mps 647 mmHg 51%
    18:00 +15°C° 0 mm 2 mps 647 mmHg 54%
    19:00 +13°C° 0 mm 1 mps 646 mmHg 58%
    20:00 +13°C° 0 mm 2 mps 646 mmHg 57%
    21:00 +13°C° 0 mm 2 mps 646 mmHg 55%
    22:00 +13°C° 0 mm 2 mps 646 mmHg 54%
    23:00 +13°C° 0 mm 2 mps 645 mmHg 58%

    Tomorrow, 6 June, Saturday

    Time Temperature Precipitation Wind Pressure Humidity
    00:00 +12°C° 0 mm 2 mps 645 mmHg 61%
    01:00 +12°C° 0 mm 1 mps 644 mmHg 64%
    02:00 +12°C° 0 mm 1 mps 644 mmHg 66%
    03:00 +12°C° 0 mm 1 mps 644 mmHg 67%
    04:00 +12°C° 0 mm 1 mps 644 mmHg 68%
    05:00 +13°C° 0 mm 1 mps 644 mmHg 67%
    06:00 +13°C° 0 mm 1 mps 645 mmHg 67%
    07:00 +14°C° 0 mm 1 mps 645 mmHg 67%
    08:00 +14°C° 0.3 mm 1 mps 646 mmHg 65%
    09:00 +15°C° 0.3 mm 1 mps 646 mmHg 63%
    10:00 +16°C° 0.3 mm 1 mps 647 mmHg 62%
    11:00 +15°C° 1 mm 1 mps 647 mmHg 66%
    12:00 +15°C° 1 mm 1 mps 647 mmHg 70%
    13:00 +14°C° 1 mm 1 mps 647 mmHg 74%
    14:00 +14°C° 0.6 mm 1 mps 647 mmHg 74%
    15:00 +14°C° 0.6 mm 1 mps 647 mmHg 74%
    16:00 +15°C° 0.6 mm 1 mps 647 mmHg 73%
    17:00 +14°C° 0.4 mm 1 mps 647 mmHg 77%
    18:00 +13°C° 0.4 mm 1 mps 647 mmHg 81%
    19:00 +12°C° 0.4 mm 1 mps 647 mmHg 85%
    20:00 +11°C° 0 mm 1 mps 647 mmHg 87%
    21:00 +10°C° 0 mm 1 mps 647 mmHg 89%
    22:00 +9°C° 0 mm 0 mps 648 mmHg 90%
    23:00 +10°C° 0 mm 1 mps 648 mmHg 91%

    Day after tomorrow, 7 June, Sunday

    Time Temperature Precipitation Wind Pressure Humidity
    00:00 +9°C° 0 mm 1 mps 647 mmHg 91%
    01:00 +9°C° 0 mm 1 mps 647 mmHg 91%
    02:00 +9°C° 0 mm 1 mps 647 mmHg 90%
    03:00 +9°C° 0 mm 1 mps 647 mmHg 89%
    04:00 +9°C° 0 mm 1 mps 647 mmHg 89%
    05:00 +10°C° 0 mm 1 mps 648 mmHg 84%
    06:00 +12°C° 0 mm 1 mps 649 mmHg 79%
    07:00 +13°C° 0 mm 1 mps 649 mmHg 74%
    08:00 +15°C° 0 mm 1 mps 650 mmHg 69%
    09:00 +16°C° 0 mm 1 mps 650 mmHg 64%
    10:00 +17°C° 0 mm 2 mps 651 mmHg 60%
    11:00 +17°C° 0 mm 2 mps 651 mmHg 60%
    12:00 +18°C° 0 mm 2 mps 651 mmHg 61%
    13:00 +18°C° 0 mm 2 mps 651 mmHg 62%
    14:00 +18°C° 0.1 mm 2 mps 651 mmHg 63%
    15:00 +17°C° 0.1 mm 2 mps 651 mmHg 64%
    16:00 +17°C° 0.1 mm 2 mps 651 mmHg 66%
    17:00 +16°C° 0 mm 2 mps 650 mmHg 72%
    18:00 +14°C° 0 mm 1 mps 650 mmHg 78%
    19:00 +13°C° 0 mm 1 mps 650 mmHg 85%
    20:00 +12°C° 0 mm 1 mps 650 mmHg 86%
    21:00 +12°C° 0 mm 1 mps 650 mmHg 86%
    22:00 +11°C° 0 mm 1 mps 650 mmHg 87%
    23:00 +11°C° 0 mm 1 mps 650 mmHg 87%

    8 June, Monday

    Time Temperature Precipitation Wind Pressure Humidity
    00:00 +10°C° 0 mm 1 mps 649 mmHg 86%
    01:00 +10°C° 0 mm 1 mps 649 mmHg 85%
    02:00 +10°C° 0 mm 1 mps 649 mmHg 85%
    03:00 +10°C° 0 mm 1 mps 649 mmHg 84%
    04:00 +10°C° 0 mm 1 mps 649 mmHg 84%
    05:00 +12°C° 0 mm 1 mps 649 mmHg 78%
    06:00 +13°C° 0 mm 1 mps 650 mmHg 73%
    07:00 +14°C° 0 mm 0 mps 651 mmHg 67%
    08:00 +16°C° 0 mm 1 mps 651 mmHg 63%
    09:00 +19°C° 0 mm 1 mps 651 mmHg 59%
    10:00 +20°C° 0 mm 1 mps 652 mmHg 55%
    11:00 +20°C° 0 mm 1 mps 652 mmHg 53%
    12:00 +20°C° 0 mm 2 mps 652 mmHg 51%
    13:00 +21°C° 0 mm 2 mps 652 mmHg 50%
    14:00 +20°C° 0 mm 2 mps 651 mmHg 51%
    15:00 +20°C° 0 mm 2 mps 651 mmHg 53%
    16:00 +19°C° 0 mm 2 mps 651 mmHg 54%
    17:00 +18°C° 0 mm 2 mps 650 mmHg 60%
    18:00 +16°C° 0 mm 1 mps 650 mmHg 65%
    19:00 +15°C° 0 mm 1 mps 650 mmHg 70%
    20:00 +14°C° 0 mm 1 mps 650 mmHg 72%
    21:00 +13°C° 0 mm 1 mps 650 mmHg 74%
    22:00 +12°C° 0 mm 1 mps 650 mmHg 76%
    23:00 +12°C° 0 mm 1 mps 649 mmHg 74%

    9 June, Tuesday

    Time Temperature Precipitation Wind Pressure Humidity
    00:00 +12°C° 0 mm 1 mps 649 mmHg 73%
    01:00 +12°C° 0 mm 1 mps 649 mmHg 71%
    02:00 +12°C° 0 mm 1 mps 649 mmHg 71%
    03:00 +12°C° 0 mm 1 mps 649 mmHg 71%
    04:00 +11°C° 0 mm 1 mps 649 mmHg 71%
    05:00 +13°C° 0 mm 1 mps 649 mmHg 67%
    06:00 +15°C° 0 mm 1 mps 650 mmHg 63%
    07:00 +16°C° 0 mm 1 mps 651 mmHg 59%
    08:00 +18°C° 0 mm 2 mps 651 mmHg 54%
    09:00 +19°C° 0 mm 2 mps 651 mmHg 49%
    10:00 +20°C° 0 mm 2 mps 652 mmHg 44%
    11:00 +21°C° 0 mm 2 mps 652 mmHg 43%
    12:00 +21°C° 0 mm 2 mps 652 mmHg 43%
    13:00 +21°C° 0 mm 2 mps 652 mmHg 42%
    14:00 +21°C° 0 mm 2 mps 652 mmHg 44%
    15:00 +20°C° 0 mm 2 mps 651 mmHg 47%
    16:00 +19°C° 0 mm 2 mps 651 mmHg 49%
    17:00 +19°C° 0 mm 1 mps 651 mmHg 57%
    18:00 +16°C° 0 mm 1 mps 650 mmHg 66%
    19:00 +14°C° 0 mm 1 mps 650 mmHg 74%
    20:00 +13°C° 0 mm 1 mps 650 mmHg 76%
    21:00 +13°C° 0 mm 1 mps 650 mmHg 79%
    22:00 +12°C° 0 mm 1 mps 650 mmHg 81%
    23:00 +12°C° 0 mm 1 mps 650 mmHg 82%

    10 June, Wednesday

    Time Temperature Precipitation Wind Pressure Humidity
    00:00 +12°C° 0 mm 1 mps 650 mmHg 83%
    01:00 +11°C° 0 mm 1 mps 650 mmHg 83%
    02:00 +11°C° 0 mm 1 mps 649 mmHg 83%
    03:00 +11°C° 0 mm 1 mps 649 mmHg 83%
    04:00 +11°C° 0 mm 1 mps 649 mmHg 82%
    05:00 +13°C° 0 mm 1 mps 650 mmHg 75%
    06:00 +15°C° 0 mm 1 mps 651 mmHg 68%
    07:00 +16°C° 0 mm 1 mps 651 mmHg 61%
    08:00 +19°C° 0 mm 1 mps 652 mmHg 57%
    09:00 +19°C° 0 mm 2 mps 652 mmHg 53%
    10:00 +20°C° 0 mm 2 mps 652 mmHg 48%
    11:00 +20°C° 0 mm 2 mps 652 mmHg 48%
    12:00 +21°C° 0 mm 2 mps 652 mmHg 47%
    13:00 +21°C° 0 mm 3 mps 652 mmHg 46%
    14:00 +21°C° 0 mm 3 mps 652 mmHg 50%
    15:00 +20°C° 0 mm 3 mps 652 mmHg 53%
    16:00 +20°C° 0 mm 3 mps 652 mmHg 56%
    17:00 +18°C° 0 mm 3 mps 651 mmHg 64%
    18:00 +16°C° 0 mm 2 mps 651 mmHg 72%
    19:00 +15°C° 0 mm 2 mps 650 mmHg 80%
    20:00 +14°C° 0 mm 2 mps 650 mmHg 82%
    21:00 +13°C° 0 mm 2 mps 650 mmHg 83%
    22:00 +12°C° 0 mm 2 mps 650 mmHg 84%
    23:00 +12°C° 0 mm 2 mps 650 mmHg 83%
    Show more